Location: Geroldsau
(48.7259°N, 8.2466°E)
Time: 15:07:16
(UTC+00:00)

ADEOS Rocket - Pass Details

Date: 20 June 2021
Orbit: 858 x 1307 km, 98.7° (Epoch: 04 August)

Event Time Altitude Azimuth Distance (km) Brightness Sun altitude
Exits shadow 02:32:27 - 191° (SSW) 3,928 5.6 -7.0°
Reaches altitude 10° 02:34:42 10° 198° (SSW) 3,169 5.1 -6.7°
Maximum altitude 02:41:20 38° 264° (W) 1,683 3.9 -6.0°
Drops below altitude 10° 02:47:28 10° 331° (NNW) 2,904 5.7 -5.3°
Sets 02:50:06 0° 340° (NNW) 3,796 6.4 -5.0°
